[[{"header":{"parameterUnit":"m.s-1","parameterCategory":1,"la1":30.2991,"la2":30.254,"lo1":-89.0895,"lo2":-89.0444,"dy":0.0017,"dx":0.0017,"nx":28,"ny":28,"refTime":"2024-05-01T21:00:00:Z","depth":0,"parameterNumber":2,"parameterNumberName":"U-component_of_WINDS"},"data":[0,0,0,0,0,0,0,0,0,0,0,0,0,0,0,0,0,0,0,0,0,0,0,0,0,0,0,0,0,0,0,0,0,0,0,0,0,0,0,0,0,0,0,0,0,0,0,0,0,0,0,0,0,0,0,0,0,0,-2.3415,-2.3416,0,-2.355,-2.3552,-2.3554,-2.3587,-2.3586,-2.3585,-2.3584,-2.3724,-2.3728,-2.3732,0,0,0,0,0,0,0,0,0,0,0,0,0,-2.3186,-2.319,-2.3415,-2.3417,-2.3418,-2.355,-2.3552,-2.3554,-2.3587,-2.3586,-2.3585,-2.3584,-2.3722,-2.3727,-2.3733,0,0,0,0,0,0,0,0,0,0,0,0,0,-2.33,-2.3192,-2.3415,-2.345,-2.3455,-2.355,-2.3552,-2.3554,-2.3587,-2.3586,-2.3584,-2.3583,-2.372,-2.3727,-2.3734,-2.3802,0,0,-2.3754,-2.3757,0,0,0,0,0,0,0,0,-2.3294,-2.3308,-2.3444,-2.3448,-2.3453,-2.355,-2.3523,-2.3638,-2.3587,-2.3537,-2.3584,-2.3582,-2.3667,-2.3678,-2.3706,-2.3809,-2.3815,-2.3755,-2.3759,-2.3762,-2.3764,0,0,0,0,0,0,0,-2.3286,-2.3303,-2.3468,-2.3445,-2.3452,-2.3461,-2.3475,-2.3545,-2.3608,-2.3541,-2.3544,-2.356,-2.3669,-2.37,-2.371,-2.3817,-2.3755,-2.3761,-2.3765,-2.3768,-2.3984,-2.3985,0,0,0,0,0,0,-2.3271,-2.3296,-2.3464,-2.3473,-2.3369,-2.3466,-2.3482,-2.3521,-2.3607,-2.3619,-2.356,-2.3561,-2.3689,-2.3702,-2.3715,-2.3801,-2.3762,-2.3768,-2.3772,-2.3982,-2.3984,-2.3986,0,0,0,0,0,0,-2.3266,-2.3286,-2.3459,-2.3385,-2.3408,-2.3471,-2.3514,-2.3524,-2.3554,-2.3622,-2.3633,-2.358,-2.3688,-2.3705,-2.3781,-2.3807,-2.3771,-2.3778,-2.398,-2.3983,-2.3985,-2.3974,0,0,0,0,0,0,-2.326,-2.3284,-2.331,-2.3385,-2.3412,-2.3521,-2.3516,-2.3528,-2.3566,-2.3567,-2.3643,-2.3654,-2.3689,-2.377,-2.3787,-2.3815,-2.3783,-2.3978,-2.3981,-2.3984,-2.3973,-2.3976,-2.3979,0,0,0,0,0,-2.3251,-2.3302,-2.3311,-2.3331,-2.3446,-2.3523,-2.3538,-2.3576,-2.3568,-2.3595,-2.3639,-2.3652,-2.3801,-2.3778,-2.3797,-2.3828,-2.3977,-2.398,-2.3984,-2.3971,-2.3975,-2.3979,0,0,0,0,0,0,-2.3228,-2.3312,-2.3324,-2.34,-2.3454,-2.3528,-2.3563,-2.3579,-2.3637,-2.3636,-2.3681,-2.3698,-2.377,-2.3807,-2.3779,-2.3899,-2.3889,-2.3897,-2.3872,-2.3877,-2.388,-2.387,-2.3789,0,0,0,0,0,-2.3231,-2.3287,-2.3358,-2.3418,-2.3445,-2.3499,-2.3534,-2.356,-2.3617,-2.364,-2.3689,-2.3745,-2.3805,-2.3844,-2.3902,-2.3979,-2.3996,-2.401,-2.4013,-2.4015,-2.4021,-2.4065,-2.4072,-2.3998,-2.3998,-2.3998,0,0,-2.324,-2.3293,-2.3325,-2.3415,-2.346,-2.3516,-2.3518,-2.3578,-2.3621,-2.365,-2.3723,-2.3762,-2.3827,-2.3903,-2.3939,-2.3936,-2.4045,-2.402,-2.4021,-2.4026,-2.4069,-2.4076,-2.4082,-2.4001,-2.4,-2.4,0,0,-2.3283,-2.3329,-2.3384,-2.3429,-2.3497,-2.3533,-2.3547,-2.3619,-2.3646,-2.3721,-2.3744,-2.3796,-2.3897,-2.3943,-2.398,-2.4043,-2.4057,-2.4061,-2.4077,-2.4119,-2.4125,-2.4131,-2.4153,-2.416,-2.4067,-2.4067,-2.4067,0,-2.3284,-2.337,-2.3411,-2.347,-2.3509,-2.3538,-2.3595,-2.3637,-2.3721,-2.3747,-2.3743,-2.3872,-2.3918,-2.4005,-2.4021,-2.405,-2.4067,-2.4052,-2.4121,-2.4127,-2.4133,-2.4154,-2.4162,-2.4067,-2.4067,-2.4067,-2.4067,0,-2.3368,-2.3428,-2.3465,-2.3544,-2.3588,-2.3646,-2.3696,-2.3735,-2.3757,-2.3794,-2.3871,-2.3928,-2.3998,-2.4022,-2.4043,-2.4113,-2.4108,-2.4112,-2.4102,-2.4139,-2.416,-2.4168,-2.4067,-2.4067,-2.4067,-2.4067,0,0,-2.3399,-2.3502,-2.3515,-2.3551,-2.3629,-2.3676,-2.3736,-2.3805,-2.3838,-2.3896,-2.3947,-2.4033,-2.4037,-2.4079,-2.4107,-2.4144,-2.419,-2.4143,-2.4145,-2.4149,-2.427,-2.4266,-2.4274,-2.42,-2.4202,-2.4204,-2.4264,0,-2.3452,-2.3558,-2.3597,-2.3685,-2.374,-2.377,-2.3822,-2.3876,-2.3912,-2.3965,-2.4007,-2.4067,-2.4068,-2.4093,-2.4131,-2.4176,-2.4214,-2.4172,-2.4248,-2.425,-2.4229,-2.4286,-2.4281,-2.4335,-2.4272,-2.4274,-2.4275,0,-2.3527,-2.3585,-2.3677,-2.3749,-2.3774,-2.382,-2.3887,-2.3937,-2.4,-2.4024,-2.4071,-2.4097,-2.4161,-2.4148,-2.4238,-2.4208,-2.4242,-2.4269,-2.4272,-2.428,-2.4264,-2.4294,-2.4354,-2.4361,-2.4288,-2.4287,-2.4286,0,-2.3539,-2.3641,-2.3709,-2.374,-2.3826,-2.3857,-2.3895,-2.3955,-2.3995,-2.4054,-2.4081,-2.4147,-2.4182,-2.4233,-2.4277,-2.4263,-2.4362,-2.4353,-2.4384,-2.4383,-2.4402,-2.44,-2.4467,-2.4426,-2.4426,-2.4425,-2.4425,0,-2.3593,-2.3648,-2.3716,-2.3758,-2.3822,-2.3867,-2.3929,-2.3968,-2.4022,-2.4073,-2.4104,-2.4151,-2.4206,-2.426,-2.4295,-2.4364,-2.438,-2.4401,-2.441,-2.4398,-2.4395,-2.442,-2.4417,-2.4428,-2.4427,-2.4427,-2.4426,0,-2.3616,-2.3664,-2.3741,-2.3816,-2.3836,-2.388,-2.3944,-2.3987,-2.4026,-2.409,-2.4108,-2.4169,-2.4235,-2.4283,-2.4369,-2.4392,-2.4465,-2.4474,-2.4444,-2.4448,-2.4476,-2.4472,-2.4561,-2.4574,-2.4524,-2.4524,-2.4525,0,-2.3647,-2.369,-2.377,-2.3806,-2.3843,-2.3901,-2.3942,-2.3989,-2.403,-2.4105,-2.4139,-2.4207,-2.4264,-2.4368,-2.442,-2.4486,-2.4496,-2.4523,-2.4506,-2.4493,-2.4496,-2.4492,-2.4497,-2.4524,-2.4525,-2.4525,-2.4525,0,-2.3696,-2.3718,-2.3775,-2.3841,-2.3888,-2.3942,-2.3997,-2.4025,-2.4082,-2.4127,-2.4195,-2.4239,-2.4327,-2.4394,-2.4465,-2.4504,-2.4525,-2.453,-2.4541,-2.4529,-2.4509,-2.452,-2.4449,-2.4528,-2.4527,-2.4527,-2.4527,-2.4527,-2.3724,-2.3764,-2.3827,-2.389,-2.3936,-2.3987,-2.403,-2.4075,-2.4132,-2.4206,-2.4231,-2.4301,-2.4364,-2.4462,-2.4502,-2.4558,-2.4557,-2.4573,-2.4576,-2.4579,-2.4578,-2.4501,-2.4571,-2.4571,-2.4571,-2.4571,-2.4571,0,-2.3774,-2.3816,-2.3874,-2.3949,-2.3999,-2.4014,-2.4076,-2.4116,-2.4177,-2.4234,-2.4289,-2.4368,-2.4434,-2.4492,-2.456,-2.4594,-2.4605,-2.4611,-2.4608,-2.4617,-2.4575,-2.4559,-2.4601,-2.4601,-2.4601,-2.4601,-2.46,-2.46,-2.3806,-2.3875,-2.3904,-2.3997,-2.4039,-2.4107,-2.4141,-2.4188,-2.4234,-2.432,-2.4374,-2.4412,-2.4469,-2.4543,-2.4604,-2.462,-2.4643,-2.4646,-2.4664,-2.4623,-2.462,-2.4616,-2.4601,-2.4651,-2.4651,-2.4701,-2.4701,-2.4702]},{"header":{"parameterUnit":"m.s-1","parameterCategory":1,"la1":30.2991,"la2":30.254,"lo1":-89.0895,"lo2":-89.0444,"dy":0.0017,"dx":0.0017,"nx":28,"ny":28,"refTime":"2024-05-01T21:00:00:Z","depth":0,"parameterNumber":3,"parameterNumberName":"V-component_of_WINDS"},"data":[0,0,0,0,0,0,0,0,0,0,0,0,0,0,0,0,0,0,0,0,0,0,0,0,0,0,0,0,0,0,0,0,0,0,0,0,0,0,0,0,0,0,0,0,0,0,0,0,0,0,0,0,0,0,0,0,0,0,3.7428,3.7428,0,3.7434,3.7434,3.7434,3.738,3.7379,3.7377,3.7376,3.738,3.7382,3.7383,0,0,0,0,0,0,0,0,0,0,0,0,0,3.737,3.7371,3.7428,3.7428,3.7428,3.7434,3.7434,3.7434,3.7381,3.7379,3.7377,3.7375,3.738,3.7382,3.7383,0,0,0,0,0,0,0,0,0,0,0,0,0,3.7387,3.7372,3.7428,3.7402,3.74,3.7434,3.7434,3.7434,3.7381,3.7379,3.7376,3.7374,3.7379,3.7381,3.7384,3.7442,0,0,3.7391,3.7392,0,0,0,0,0,0,0,0,3.7386,3.7389,3.7406,3.7404,3.7402,3.7404,3.7415,3.7437,3.7382,3.7388,3.7376,3.7373,3.739,3.7391,3.7397,3.7442,3.7442,3.7391,3.7392,3.7393,3.7394,0,0,0,0,0,0,0,3.7385,3.7389,3.743,3.7406,3.7404,3.739,3.739,3.7419,3.7401,3.7387,3.7384,3.7385,3.7388,3.7395,3.7397,3.7443,3.7391,3.7393,3.7394,3.7395,3.7536,3.7539,0,0,0,0,0,0,3.7388,3.7388,3.743,3.7431,3.7388,3.7393,3.7393,3.7406,3.7401,3.7398,3.7387,3.7383,3.7392,3.7394,3.7397,3.7465,3.7393,3.7395,3.7396,3.7534,3.7537,3.754,0,0,0,0,0,0,3.7387,3.7392,3.743,3.7408,3.7412,3.7396,3.7411,3.7407,3.7413,3.7401,3.7397,3.7397,3.7391,3.7394,3.7431,3.7464,3.7396,3.7398,3.7531,3.7535,3.7538,3.7602,0,0,0,0,0,0,3.7385,3.7392,3.7414,3.7409,3.7414,3.7465,3.7413,3.7409,3.7418,3.7412,3.7409,3.7407,3.7389,3.7428,3.7434,3.7466,3.74,3.7528,3.7533,3.7537,3.7597,3.7607,3.7616,0,0,0,0,0,3.7383,3.7431,3.7415,3.7421,3.7441,3.7467,3.7469,3.7449,3.7421,3.7443,3.7435,3.7407,3.746,3.7433,3.7438,3.7472,3.7526,3.7532,3.7537,3.7592,3.7605,3.7616,0,0,0,0,0,0,3.7439,3.743,3.7412,3.746,3.7465,3.7458,3.7485,3.7463,3.7475,3.7469,3.7442,3.7442,3.7485,3.7482,3.7452,3.7528,3.7488,3.7495,3.7528,3.754,3.755,3.7549,3.7402,0,0,0,0,0,3.7457,3.7479,3.747,3.7513,3.7517,3.7501,3.7511,3.7495,3.7498,3.75,3.7494,3.7498,3.7516,3.7528,3.7544,3.7596,3.7595,3.7622,3.7632,3.764,3.7646,3.7674,3.7686,3.7557,3.7557,3.7557,0,0,3.7494,3.7492,3.7507,3.7524,3.7526,3.7549,3.7502,3.7529,3.7546,3.7504,3.7539,3.7536,3.7538,3.7584,3.7604,3.7583,3.7681,3.7647,3.7654,3.7655,3.7681,3.7693,3.7704,3.7561,3.756,3.756,0,0,3.7573,3.7574,3.761,3.7614,3.7617,3.7606,3.7615,3.7612,3.7608,3.7644,3.7613,3.7633,3.7664,3.7667,3.7673,3.7755,3.773,3.7761,3.7812,3.7839,3.7849,3.7858,3.7887,3.7898,3.7767,3.7768,3.7768,0,3.7619,3.7653,3.7632,3.7661,3.7669,3.7633,3.767,3.7673,3.7682,3.7688,3.7665,3.7704,3.7703,3.775,3.777,3.7776,3.7785,3.7761,3.785,3.7858,3.7866,3.7894,3.7905,3.7771,3.7771,3.777,3.777,0,3.7709,3.7733,3.7762,3.7772,3.7784,3.7816,3.78,3.7814,3.7798,3.7789,3.7826,3.7825,3.7839,3.7849,3.7833,3.7893,3.788,3.7854,3.7813,3.7883,3.7908,3.7918,3.7777,3.7775,3.7774,3.7773,0,0,3.7822,3.7821,3.7832,3.7836,3.7838,3.7856,3.7888,3.7903,3.7916,3.7923,3.7949,3.7976,3.7952,3.7959,3.7943,3.7967,3.8033,3.7938,3.7938,3.7955,3.8099,3.8119,3.8131,3.8017,3.8019,3.802,3.8099,0,3.7899,3.7952,3.7935,3.7989,3.8011,3.7979,3.8006,3.801,3.8004,3.8021,3.8014,3.8034,3.8001,3.8005,3.8028,3.802,3.8061,3.8014,3.804,3.8041,3.8039,3.8145,3.8165,3.8239,3.8109,3.8111,3.8112,0,3.7996,3.8008,3.8065,3.8064,3.8073,3.8098,3.8111,3.8128,3.8133,3.8126,3.8135,3.8114,3.8144,3.8104,3.8145,3.8114,3.8123,3.8122,3.8124,3.8125,3.808,3.8148,3.8262,3.8273,3.8127,3.8126,3.8125,0,3.8072,3.8103,3.8141,3.8146,3.8146,3.8164,3.8165,3.8167,3.8178,3.8189,3.8196,3.8211,3.8219,3.823,3.8214,3.8186,3.8258,3.8216,3.8253,3.8254,3.8269,3.8268,3.8386,3.8276,3.8276,3.8276,3.8276,0,3.816,3.8196,3.8176,3.8199,3.8239,3.8218,3.8258,3.8255,3.8257,3.8279,3.8252,3.8273,3.825,3.8269,3.8257,3.8293,3.8297,3.8292,3.8288,3.8294,3.8295,3.8299,3.8294,3.8279,3.8278,3.8278,3.8277,0,3.8251,3.8239,3.8279,3.8276,3.8277,3.8306,3.8303,3.8325,3.8317,3.8345,3.8351,3.8338,3.8359,3.8345,3.8366,3.8357,3.8405,3.8394,3.8403,3.84,3.8438,3.8434,3.8562,3.8578,3.8459,3.846,3.8461,0,3.8308,3.8335,3.8336,3.8349,3.8352,3.8373,3.8384,3.8366,3.8378,3.8386,3.8407,3.8426,3.844,3.8475,3.8468,3.8484,3.8472,3.8516,3.8475,3.848,3.8473,3.8471,3.8474,3.8524,3.8526,3.8527,3.8528,0,3.8409,3.8402,3.8419,3.8435,3.845,3.8461,3.847,3.8482,3.8464,3.8479,3.8501,3.8512,3.8534,3.8553,3.8567,3.8567,3.8544,3.8541,3.8551,3.8557,3.8561,3.8559,3.8426,3.8538,3.8537,3.8536,3.8536,3.8535,3.8484,3.8507,3.8511,3.8532,3.8537,3.8547,3.8567,3.8562,3.858,3.8597,3.8585,3.8611,3.8615,3.8631,3.8634,3.8654,3.8636,3.865,3.8653,3.8656,3.8662,3.8559,3.8657,3.8656,3.8656,3.8656,3.8655,0,3.8583,3.8585,3.8605,3.8619,3.8635,3.8614,3.8623,3.8638,3.8661,3.8668,3.8682,3.8708,3.8727,3.8721,3.8738,3.8755,3.8745,3.876,3.8758,3.8758,3.8677,3.8667,3.8768,3.8768,3.8768,3.8768,3.8768,3.8768,3.8637,3.8675,3.8669,3.8709,3.871,3.8736,3.8743,3.8752,3.8756,3.8786,3.8802,3.8799,3.8801,3.8817,3.8834,3.8832,3.8839,3.8857,3.8852,3.8775,3.8764,3.8754,3.8744,3.8859,3.8859,3.8931,3.8932,3.8933]}]]